GTI8969 MROC-MPTO

Flight info

Callsign GTI8969
Flight time 0h 57m
Altitude 29000
Route TEJAR3M LIO UA317 BUFEO DCT BITOR VUMAN2B
Aircraft B744/H-SDE3FGHIM1M2RWXY/LB1

Departure

Time 2026-05-04 03:25
Airport Juan Santamaría International Airport (MROC)

Arrival

Time 2026-05-04 04:23
Airport Tocumen International Airport (MPTO)
Time Latitude Longitude Altitude Speed Heading
2026-05-04 02:29 9.99613 -84.21062 3013 ft 0 kts 340°
2026-05-04 02:59 9.99606 -84.21059 3014 ft 2 kts 340°
2026-05-04 02:59 9.99591 -84.21053 3014 ft 2 kts 345°
2026-05-04 03:00 9.99576 -84.21052 3014 ft 2 kts
2026-05-04 03:00 9.99561 -84.21055 3014 ft 2 kts 25°
2026-05-04 03:00 9.99548 -84.21063 3014 ft 2 kts 43°
2026-05-04 03:00 9.99538 -84.21075 3014 ft 2 kts 60°
2026-05-04 03:01 9.99532 -84.21088 3014 ft 0 kts 76°
2026-05-04 03:01 9.99530 -84.21094 3014 ft 0 kts 77°
2026-05-04 03:18 9.99531 -84.21091 3014 ft 1 kts 77°
2026-05-04 03:19 9.99541 -84.21062 3014 ft 7 kts 70°
2026-05-04 03:19 9.99562 -84.20995 3014 ft 10 kts 87°
2026-05-04 03:19 9.99541 -84.20944 3014 ft 7 kts 145°
2026-05-04 03:19 9.99488 -84.20932 3014 ft 7 kts 191°
2026-05-04 03:20 9.99464 -84.20956 3014 ft 3 kts 244°
2026-05-04 03:20 9.99449 -84.20990 3014 ft 8 kts 248°
2026-05-04 03:20 9.99411 -84.21091 3014 ft 21 kts 249°
2026-05-04 03:20 9.99360 -84.21231 3014 ft 20 kts 248°
2026-05-04 03:21 9.99309 -84.21359 3014 ft 17 kts 249°
2026-05-04 03:21 9.99273 -84.21458 3014 ft 12 kts 251°
2026-05-04 03:21 9.99248 -84.21523 3014 ft 7 kts 250°
2026-05-04 03:21 9.99234 -84.21562 3014 ft 5 kts 249°
2026-05-04 03:22 9.99221 -84.21595 3014 ft 6 kts 249°
2026-05-04 03:22 9.99197 -84.21662 3014 ft 14 kts 250°
2026-05-04 03:22 9.99151 -84.21783 3014 ft 18 kts 249°
2026-05-04 03:22 9.99110 -84.21893 3014 ft 13 kts 251°
2026-05-04 03:23 9.99102 -84.21970 3014 ft 8 kts 274°
2026-05-04 03:23 9.99105 -84.22022 3014 ft 7 kts 269°
2026-05-04 03:23 9.99092 -84.22094 3014 ft 13 kts 255°
2026-05-04 03:23 9.99061 -84.22171 3014 ft 9 kts 228°
2026-05-04 03:24 9.99021 -84.22194 3014 ft 4 kts 182°
2026-05-04 03:24 9.99003 -84.22192 3014 ft 2 kts 172°
2026-05-04 03:24 9.98976 -84.22186 3014 ft 6 kts 163°
2026-05-04 03:24 9.98935 -84.22169 3014 ft 6 kts 140°
2026-05-04 03:25 9.98928 -84.22128 3014 ft 6 kts 78°
2026-05-04 03:25 9.98968 -84.22011 3014 ft 58 kts 71°
2026-05-04 03:25 9.99208 -84.21377 3036 ft 152 kts 71°
2026-05-04 03:25 9.99639 -84.20441 4197 ft 116 kts 62°
2026-05-04 03:26 9.99961 -84.19693 4748 ft 132 kts 66°
2026-05-04 03:26 10.00166 -84.18812 5281 ft 137 kts 90°
2026-05-04 03:26 10.00006 -84.17755 5521 ft 172 kts 99°
2026-05-04 03:26 9.99864 -84.16470 5939 ft 187 kts 91°
2026-05-04 03:27 9.99744 -84.15294 6400 ft 198 kts 95°
2026-05-04 03:27 9.99452 -84.13848 7081 ft 208 kts 109°
2026-05-04 03:27 9.98675 -84.12734 7662 ft 213 kts 135°
2026-05-04 03:27 9.97715 -84.11645 8610 ft 202 kts 128°
2026-05-04 03:28 9.96967 -84.10487 9253 ft 212 kts 118°
2026-05-04 03:28 9.96205 -84.09115 9739 ft 238 kts 120°
2026-05-04 03:28 9.95294 -84.07677 10589 ft 250 kts 123°
2026-05-04 03:28 9.94310 -84.06224 11658 ft 254 kts 124°
2026-05-04 03:29 9.93389 -84.04942 12597 ft 256 kts 126°
2026-05-04 03:29 9.92295 -84.03542 13612 ft 259 kts 130°
2026-05-04 03:29 9.91016 -84.02278 14592 ft 262 kts 139°
2026-05-04 03:29 9.89607 -84.01093 15407 ft 271 kts 140°
2026-05-04 03:30 9.88672 -84.00306 15838 ft 281 kts 140°
2026-05-04 03:30 9.87142 -83.99052 16404 ft 301 kts 141°
2026-05-04 03:30 9.85380 -83.97662 16800 ft 330 kts 142°
2026-05-04 03:30 9.83493 -83.96117 16987 ft 362 kts 135°
2026-05-04 03:31 9.82064 -83.93955 17655 ft 378 kts 113°
2026-05-04 03:31 9.81449 -83.91473 18743 ft 381 kts 95°
2026-05-04 03:31 9.81631 -83.88750 19882 ft 383 kts 79°
2026-05-04 03:31 9.82141 -83.86211 20910 ft 393 kts 79°
2026-05-04 03:32 9.82573 -83.83457 22328 ft 399 kts 81°
2026-05-04 03:32 9.83026 -83.80738 23702 ft 404 kts 80°
2026-05-04 03:32 9.83458 -83.77867 25065 ft 410 kts 82°
2026-05-04 03:32 9.83716 -83.75068 26279 ft 414 kts 86°
2026-05-04 03:33 9.83903 -83.72185 27423 ft 420 kts 85°
2026-05-04 03:33 9.84141 -83.69185 28580 ft 426 kts 85°
2026-05-04 03:33 9.84330 -83.66213 29640 ft 432 kts 86°
2026-05-04 03:33 9.84523 -83.63287 30253 ft 445 kts 86°
2026-05-04 03:34 9.84735 -83.60139 30466 ft 446 kts 84°
2026-05-04 03:34 9.85982 -83.54095 30488 ft 434 kts 78°
2026-05-04 03:35 9.87167 -83.48313 30319 ft 428 kts 78°
2026-05-04 03:35 9.87734 -83.45467 30213 ft 427 kts 78°
2026-05-04 03:35 9.88335 -83.42515 30143 ft 426 kts 78°
2026-05-04 03:36 9.89501 -83.36723 30093 ft 423 kts 78°
2026-05-04 03:36 9.90618 -83.31187 30121 ft 426 kts 78°
2026-05-04 03:37 9.91813 -83.25252 30139 ft 428 kts 78°
2026-05-04 03:37 9.93005 -83.19308 30196 ft 461 kts 78°
2026-05-04 03:37 9.93608 -83.16296 30278 ft 488 kts 78°
2026-05-04 03:38 9.94329 -83.12732 30305 ft 508 kts 78°
2026-05-04 03:38 9.95702 -83.05721 30207 ft 505 kts 80°
2026-05-04 03:38 9.95895 -83.02276 30114 ft 496 kts 92°
2026-05-04 03:39 9.95367 -82.98803 30061 ft 490 kts 104°
2026-05-04 03:39 9.92968 -82.92424 30121 ft 490 kts 109°
2026-05-04 03:40 9.90791 -82.86278 30161 ft 496 kts 109°
2026-05-04 03:40 9.88579 -82.79848 30145 ft 496 kts 110°
2026-05-04 03:41 9.86340 -82.73271 30074 ft 495 kts 110°
2026-05-04 03:41 9.84079 -82.66651 30000 ft 495 kts 109°
2026-05-04 03:42 9.81842 -82.60127 29943 ft 495 kts 109°
2026-05-04 03:42 9.79585 -82.53538 29904 ft 495 kts 109°
2026-05-04 03:43 9.77315 -82.46873 29889 ft 495 kts 109°
2026-05-04 03:43 9.75040 -82.40195 29886 ft 495 kts 109°
2026-05-04 03:44 9.72767 -82.33538 29887 ft 495 kts 109°
2026-05-04 03:44 9.70493 -82.26894 29886 ft 495 kts 109°
2026-05-04 03:45 9.68226 -82.20274 29885 ft 494 kts 109°
2026-05-04 03:45 9.65958 -82.13650 29884 ft 494 kts 109°
2026-05-04 03:46 9.63661 -82.06944 29884 ft 494 kts 109°
2026-05-04 03:46 9.61383 -82.00295 29885 ft 494 kts 109°
2026-05-04 03:47 9.59112 -81.93676 29885 ft 494 kts 109°
2026-05-04 03:47 9.56845 -81.87073 29885 ft 494 kts 109°
2026-05-04 03:48 9.54556 -81.80413 29884 ft 494 kts 109°
2026-05-04 03:48 9.52272 -81.73766 29884 ft 494 kts 109°
2026-05-04 03:49 9.50812 -81.69522 29885 ft 494 kts 109°
2026-05-04 03:49 9.48532 -81.62899 29885 ft 494 kts 109°
2026-05-04 03:50 9.46253 -81.56280 29885 ft 494 kts 109°
2026-05-04 03:50 9.43967 -81.49650 29885 ft 494 kts 109°
2026-05-04 03:51 9.41694 -81.43057 29885 ft 494 kts 109°
2026-05-04 03:51 9.39432 -81.36500 29885 ft 494 kts 109°
2026-05-04 03:52 9.37154 -81.29905 29888 ft 494 kts 109°
2026-05-04 03:52 9.34872 -81.23300 29893 ft 494 kts 109°
2026-05-04 03:53 9.32595 -81.16717 29900 ft 494 kts 109°
2026-05-04 03:53 9.30330 -81.10165 29907 ft 494 kts 109°
2026-05-04 03:54 9.28055 -81.03598 29910 ft 494 kts 109°
2026-05-04 03:54 9.25803 -80.97052 29911 ft 494 kts 109°
2026-05-04 03:55 9.23578 -80.90485 29910 ft 494 kts 109°
2026-05-04 03:55 9.21355 -80.83909 29911 ft 494 kts 109°
2026-05-04 03:56 9.19134 -80.77349 29911 ft 494 kts 109°
2026-05-04 03:56 9.16900 -80.70770 29911 ft 493 kts 109°
2026-05-04 03:57 9.14681 -80.64246 29911 ft 493 kts 109°
2026-05-04 03:57 9.12448 -80.57679 29912 ft 493 kts 109°
2026-05-04 03:57 9.11340 -80.54414 29888 ft 482 kts 109°
2026-05-04 03:58 9.09205 -80.48149 29630 ft 463 kts 109°
2026-05-04 03:58 9.08159 -80.45055 29430 ft 464 kts 109°
2026-05-04 03:58 9.07096 -80.41950 29206 ft 464 kts 109°
2026-05-04 03:59 9.06118 -80.38944 28931 ft 450 kts 105°
2026-05-04 03:59 9.05607 -80.36224 28600 ft 443 kts 99°
2026-05-04 03:59 9.05071 -80.33186 28182 ft 432 kts 102°
2026-05-04 03:59 9.04487 -80.30231 27676 ft 419 kts 101°
2026-05-04 04:00 9.03980 -80.27398 27158 ft 409 kts 101°
2026-05-04 04:00 9.03441 -80.24603 26613 ft 399 kts 101°
2026-05-04 04:00 9.02932 -80.21864 26053 ft 391 kts 100°
2026-05-04 04:00 9.02430 -80.19199 25486 ft 383 kts 101°
2026-05-04 04:01 9.01931 -80.16557 24903 ft 377 kts 100°
2026-05-04 04:01 9.01444 -80.13958 24326 ft 382 kts 100°
2026-05-04 04:01 9.00935 -80.11261 23838 ft 387 kts 100°
2026-05-04 04:01 9.00439 -80.08626 23304 ft 379 kts 100°
2026-05-04 04:02 8.99950 -80.06031 22755 ft 371 kts 100°
2026-05-04 04:02 8.99469 -80.03485 22195 ft 364 kts 100°
2026-05-04 04:02 8.98997 -80.00976 21632 ft 365 kts 100°
2026-05-04 04:02 8.98508 -79.98377 21121 ft 384 kts 100°
2026-05-04 04:03 8.98015 -79.95763 20628 ft 374 kts 100°
2026-05-04 04:03 8.97528 -79.93179 20112 ft 365 kts 100°
2026-05-04 04:03 8.97056 -79.90680 19588 ft 358 kts 100°
2026-05-04 04:03 8.96587 -79.88206 19048 ft 351 kts 100°
2026-05-04 04:04 8.96134 -79.85816 18510 ft 346 kts 100°
2026-05-04 04:04 8.95669 -79.83369 17989 ft 354 kts 100°
2026-05-04 04:04 8.95142 -79.80958 17459 ft 348 kts 105°
2026-05-04 04:04 8.94347 -79.78629 16947 ft 348 kts 108°
2026-05-04 04:05 8.93586 -79.76266 16449 ft 350 kts 107°
2026-05-04 04:05 8.92839 -79.73969 15954 ft 343 kts 108°
2026-05-04 04:05 8.92096 -79.71702 15445 ft 336 kts 107°
2026-05-04 04:05 8.91376 -79.69477 14929 ft 330 kts 107°
2026-05-04 04:06 8.90639 -79.67222 14427 ft 335 kts 107°
2026-05-04 04:06 8.89882 -79.65021 13929 ft 337 kts 112°
2026-05-04 04:06 8.88536 -79.63045 13371 ft 341 kts 135°
2026-05-04 04:06 8.86696 -79.61578 12863 ft 332 kts 142°
2026-05-04 04:07 8.84868 -79.60195 12355 ft 324 kts 147°
2026-05-04 04:07 8.82817 -79.59393 11793 ft 320 kts 169°
2026-05-04 04:07 8.80602 -79.59197 11261 ft 314 kts 175°
2026-05-04 04:07 8.78476 -79.59113 10727 ft 308 kts 186°
2026-05-04 04:08 8.76447 -79.59784 10143 ft 305 kts 211°
2026-05-04 04:08 8.74757 -79.61029 9610 ft 300 kts 217°
2026-05-04 04:08 8.73068 -79.62273 9089 ft 296 kts 217°
2026-05-04 04:08 8.71717 -79.63746 8528 ft 292 kts 240°
2026-05-04 04:09 8.71104 -79.65705 7947 ft 289 kts 266°
2026-05-04 04:09 8.71385 -79.67664 7305 ft 271 kts 292°
2026-05-04 04:09 8.72341 -79.69291 6648 ft 267 kts 304°
2026-05-04 04:09 8.73307 -79.70844 6142 ft 260 kts 301°
2026-05-04 04:10 8.74204 -79.72402 5998 ft 248 kts 298°
2026-05-04 04:10 8.74978 -79.73945 5909 ft 240 kts 298°
2026-05-04 04:10 8.75758 -79.75407 5764 ft 230 kts 298°
2026-05-04 04:10 8.76486 -79.76817 5581 ft 224 kts 298°
2026-05-04 04:11 8.77088 -79.77965 5405 ft 221 kts 298°
2026-05-04 04:11 8.77826 -79.79340 5176 ft 219 kts 302°
2026-05-04 04:11 8.78942 -79.80328 4879 ft 217 kts 335°
2026-05-04 04:11 8.80399 -79.80493 4738 ft 212 kts 10°
2026-05-04 04:12 8.81698 -79.79763 4613 ft 215 kts 45°
2026-05-04 04:12 8.82343 -79.78432 4490 ft 216 kts 79°
2026-05-04 04:12 8.82455 -79.76907 4413 ft 217 kts 85°
2026-05-04 04:12 8.82599 -79.75401 4278 ft 213 kts 84°
2026-05-04 04:13 8.82731 -79.73929 4124 ft 207 kts 84°
2026-05-04 04:13 8.83067 -79.72507 3965 ft 204 kts 71°
2026-05-04 04:13 8.83371 -79.71122 3795 ft 205 kts 90°
2026-05-04 04:13 8.83152 -79.69730 3812 ft 195 kts 100°
2026-05-04 04:14 8.82951 -79.68362 3865 ft 195 kts 97°
2026-05-04 04:14 8.82741 -79.67007 3911 ft 195 kts 99°
2026-05-04 04:14 8.82532 -79.65659 3956 ft 195 kts 98°
2026-05-04 04:14 8.82324 -79.64281 4003 ft 195 kts 98°
2026-05-04 04:15 8.82114 -79.62925 4050 ft 195 kts 98°
2026-05-04 04:15 8.81905 -79.61558 4097 ft 195 kts 98°
2026-05-04 04:15 8.81696 -79.60196 4145 ft 196 kts 98°
2026-05-04 04:15 8.81486 -79.58824 4194 ft 196 kts 98°
2026-05-04 04:16 8.81320 -79.57461 4246 ft 195 kts 91°
2026-05-04 04:16 8.81753 -79.56185 4144 ft 188 kts 53°
2026-05-04 04:16 8.82652 -79.55289 4078 ft 177 kts 43°
2026-05-04 04:16 8.83492 -79.54403 3960 ft 172 kts 46°
2026-05-04 04:17 8.84279 -79.53590 3822 ft 170 kts 44°
2026-05-04 04:17 8.85113 -79.52732 3667 ft 169 kts 45°
2026-05-04 04:17 8.85941 -79.51869 3513 ft 169 kts 45°
2026-05-04 04:17 8.86752 -79.51009 3352 ft 169 kts 49°
2026-05-04 04:18 8.87417 -79.50022 3180 ft 168 kts 54°
2026-05-04 04:18 8.88219 -79.49159 3034 ft 166 kts 40°
2026-05-04 04:18 8.89121 -79.48436 2957 ft 165 kts 36°
2026-05-04 04:18 8.90079 -79.47751 2933 ft 166 kts 32°
2026-05-04 04:19 8.91047 -79.47128 2924 ft 167 kts 31°
2026-05-04 04:19 8.92033 -79.46524 2916 ft 164 kts 30°
2026-05-04 04:19 8.93039 -79.45931 2886 ft 170 kts 29°
2026-05-04 04:19 8.94071 -79.45335 2748 ft 171 kts 28°
2026-05-04 04:20 8.95104 -79.44743 2606 ft 169 kts 28°
2026-05-04 04:20 8.96131 -79.44158 2463 ft 167 kts 28°
2026-05-04 04:20 8.97144 -79.43582 2361 ft 165 kts 28°
2026-05-04 04:20 8.98160 -79.43006 2258 ft 169 kts 28°
2026-05-04 04:21 8.99206 -79.42400 1949 ft 173 kts 28°
2026-05-04 04:21 9.00252 -79.41805 1373 ft 173 kts 27°
2026-05-04 04:21 9.01272 -79.41238 1048 ft 162 kts 28°
2026-05-04 04:21 9.02259 -79.40673 869 ft 163 kts 28°
2026-05-04 04:22 9.03248 -79.40108 555 ft 166 kts 27°
2026-05-04 04:22 9.04250 -79.39551 344 ft 162 kts 29°
2026-05-04 04:22 9.05215 -79.39006 159 ft 147 kts 28°
2026-05-04 04:22 9.06014 -79.38550 146 ft 107 kts 32°
2026-05-04 04:23 9.06314 -79.38379 145 ft 2 kts 29°
2026-05-04 04:23 9.06350 -79.38357 145 ft 32 kts 30°
2026-05-04 04:23 9.06602 -79.38217 145 ft 37 kts 31°
2026-05-04 04:23 9.06774 -79.38111 145 ft 27 kts 26°
2026-05-04 04:24 9.06919 -79.38032 145 ft 21 kts 30°
2026-05-04 04:24 9.07030 -79.37971 145 ft 15 kts 29°
2026-05-04 04:24 9.07109 -79.37927 145 ft 10 kts 19°
2026-05-04 04:24 9.07168 -79.37936 145 ft 9 kts 311°
2026-05-04 04:25 9.07203 -79.37992 145 ft 9 kts 297°
2026-05-04 04:25 9.07208 -79.38055 145 ft 9 kts 235°
2026-05-04 04:25 9.07151 -79.38094 145 ft 10 kts 216°
2026-05-04 04:25 9.07129 -79.38151 145 ft 9 kts 294°
2026-05-04 04:26 9.07160 -79.38210 145 ft 9 kts 300°
2026-05-04 04:26 9.07195 -79.38271 145 ft 10 kts 298°
2026-05-04 04:26 9.07231 -79.38339 145 ft 11 kts 300°
2026-05-04 04:26 9.07272 -79.38411 145 ft 11 kts 297°
2026-05-04 04:27 9.07310 -79.38483 145 ft 11 kts 301°
2026-05-04 04:27 9.07374 -79.38501 145 ft 10 kts 30°
2026-05-04 04:27 9.07439 -79.38460 145 ft 11 kts 31°
2026-05-04 04:27 9.07510 -79.38416 145 ft 12 kts 32°
2026-05-04 04:28 9.07589 -79.38370 145 ft 16 kts 29°
2026-05-04 04:28 9.07699 -79.38303 145 ft 20 kts 31°
2026-05-04 04:28 9.07828 -79.38226 145 ft 23 kts 31°
2026-05-04 04:28 9.07957 -79.38149 145 ft 18 kts 30°
2026-05-04 04:29 9.08053 -79.38092 145 ft 13 kts 31°
2026-05-04 04:29 9.08121 -79.38051 145 ft 9 kts 31°
2026-05-04 04:29 9.08172 -79.38019 145 ft 12 kts 36°
2026-05-04 04:29 9.08264 -79.37929 145 ft 20 kts 45°
2026-05-04 04:30 9.08372 -79.37817 145 ft 21 kts 45°
2026-05-04 04:30 9.08466 -79.37719 145 ft 16 kts 45°
2026-05-04 04:30 9.08542 -79.37655 145 ft 11 kts 31°
2026-05-04 04:30 9.08598 -79.37620 145 ft 7 kts 31°
2026-05-04 04:31 9.08631 -79.37600 145 ft 5 kts 31°
2026-05-04 04:31 9.08684 -79.37568 145 ft 11 kts 31°
2026-05-04 04:31 9.08767 -79.37518 145 ft 13 kts 29°
2026-05-04 04:31 9.08817 -79.37491 145 ft 5 kts 24°
2026-05-04 04:32 9.08830 -79.37483 145 ft 1 kts 64°
2026-05-04 04:32 9.08829 -79.37469 145 ft 5 kts 107°
2026-05-04 04:32 9.08794 -79.37442 145 ft 5 kts 163°
2026-05-04 04:32 9.08774 -79.37436 145 ft 1 kts 163°
2026-05-04 04:33 9.08757 -79.37431 145 ft 0 kts 162°